| time (UTC) | temp C | wind direction | speed KPH | gust KPH | rain 1hr cm | rain 24hr cm | rain mn cm | humidity % | barometer mb |
| 20260504081501 | 17 | 121 | 3.2 | 12.9 | 0.00 | 0.00 | 0.00 | 50 | 1015.4 |
| 20260504044554 | 12 | 101 | 0.0 | 8.0 | 0.00 | 0.00 | 0.00 | 58 | 1015.6 |
| 20260504043036 | 12 | 126 | 0.0 | 8.0 | 0.00 | 0.00 | 0.00 | 57 | 1015.8 |
| 20260504041534 | 12 | 105 | 0.0 | 8.0 | 0.00 | 0.00 | 0.00 | 57 | 1015.8 |
| 20260504040034 | 12 | 99 | 0.0 | 4.8 | 0.00 | 0.00 | 0.00 | 57 | 1015.8 |
| 20260504034539 | 12 | 89 | 0.0 | 4.8 | 0.00 | 0.00 | 0.00 | 56 | 1015.9 |
| 20260504033043 | 12 | 125 | 0.0 | 1.6 | 0.00 | 0.00 | 0.00 | 55 | 1015.9 |
| 20260504031533 | 12 | 82 | 0.0 | 6.4 | 0.00 | 0.00 | 0.00 | 54 | 1016.0 |
| 20260504030029 | 12 | 331 | 0.0 | 8.0 | 0.00 | 0.00 | 0.00 | 54 | 1015.9 |
| 20260504024528 | 12 | 111 | 0.0 | 6.4 | 0.00 | 0.00 | 0.00 | 53 | 1015.9 |
| 20260504023027 | 12 | 101 | 0.0 | 6.4 | 0.00 | 0.00 | 0.00 | 54 | 1015.9 |
| 20260504021532 | 12 | 92 | 0.0 | 4.8 | 0.00 | 0.00 | 0.00 | 52 | 1016.1 |
| 20260504020024 | 12 | 128 | 1.6 | 3.2 | 0.00 | 0.00 | 0.00 | 52 | 1016.0 |
| 20260504014523 | 12 | 124 | 0.0 | 3.2 | 0.00 | 0.00 | 0.00 | 51 | 1016.0 |
| 20260504013032 | 12 | 128 | 0.0 | 3.2 | 0.00 | 0.00 | 0.00 | 51 | 1016.0 |
| 20260504011520 | 12 | 304 | 0.0 | 4.8 | 0.00 | 0.00 | 0.00 | 51 | 1016.1 |
| 20260504010020 | 12 | 91 | 0.0 | 6.4 | 0.00 | 0.00 | 0.00 | 51 | 1016.0 |
| 20260504004519 | 12 | 100 | 0.0 | 16.1 | 0.00 | 0.00 | 0.00 | 50 | 1016.2 |
| 20260504003017 | 12 | 88 | 0.0 | 3.2 | 0.00 | 0.00 | 0.00 | 50 | 1016.1 |
| 20260504001518 | 12 | 146 | 0.0 | 9.7 | 0.00 | 0.00 | 0.00 | 49 | 1016.2 |
| 20260504000014 | 12 | 54 | 0.0 | 8.0 | 0.00 | 0.00 | 0.00 | 50 | 1016.3 |
| 20260503234514 | 12 | 106 | 0.0 | 3.2 | 0.00 | 0.00 | 0.00 | 50 | 1016.3 |
| 20260503233013 | 12 | 142 | 0.0 | 4.8 | 0.00 | 0.00 | 0.00 | 49 | 1016.3 |
| 20260503231511 | 12 | 335 | 0.0 | 4.8 | 0.00 | 0.00 | 0.00 | 48 | 1016.4 |
| 20260503230011 | 12 | 130 | 0.0 | 1.6 | 0.00 | 0.00 | 0.00 | 50 | 1016.5 |
| 20260503224508 | 12 | 108 | 0.0 | 4.8 | 0.00 | 0.00 | 0.00 | 48 | 1016.4 |
| 20260503223006 | 13 | 129 | 0.0 | 6.4 | 0.00 | 0.00 | 0.00 | 47 | 1016.5 |
| 20260503221503 | 13 | 159 | 0.0 | 1.6 | 0.00 | 0.00 | 0.00 | 46 | 1016.5 |
| 20260503220000 | 13 | 89 | 0.0 | 6.4 | 0.00 | 0.00 | 0.00 | 46 | 1016.6 |
| 20260503214500 | 13 | 146 | 0.0 | 8.0 | 0.00 | 0.00 | 0.00 | 46 | 1016.6 |
| 20260503213100 | 13 | 167 | 0.0 | 9.7 | 0.00 | 0.00 | 0.00 | 46 | 1016.6 |
| 20260503211609 | 13 | 159 | 1.6 | 11.3 | 0.00 | 0.00 | 0.00 | 48 | 1016.7 |
| 20260503210058 | 13 | 65 | 0.0 | 6.4 | 0.00 | 0.00 | 0.00 | 49 | 1016.7 |
| 20260503204602 | 13 | 166 | 0.0 | 4.8 | 0.00 | 0.00 | 0.00 | 50 | 1016.6 |
| 20260503203057 | 14 | 109 | 0.0 | 4.8 | 0.00 | 0.00 | 0.00 | 51 | 1016.6 |
| 20260503201557 | 15 | 170 | 1.6 | 14.5 | 0.00 | 0.00 | 0.00 | 50 | 1016.5 |
| 20260503200056 | 15 | 148 | 0.0 | 20.9 | 0.00 | 0.00 | 0.00 | 50 | 1016.8 |
| 20260503194556 | 15 | 335 | 3.2 | 8.0 | 0.00 | 0.00 | 0.00 | 50 | 1016.7 |
| 20260503193102 | 15 | 105 | 1.6 | 6.4 | 0.00 | 0.00 | 0.00 | 50 | 1016.7 |
| 20260503191555 | 15 | 352 | 1.6 | 6.4 | 0.00 | 0.00 | 0.00 | 50 | 1016.8 |
| 20260503190053 | 15 | 118 | 0.0 | 6.4 | 0.00 | 0.00 | 0.00 | 50 | 1016.8 |
| 20260503184552 | 15 | 87 | 1.6 | 11.3 | 0.00 | 0.00 | 0.00 | 49 | 1016.6 |
| 20260503183051 | 16 | 277 | 1.6 | 12.9 | 0.00 | 0.00 | 0.00 | 47 | 1016.5 |
| 20260503181618 | 16 | 316 | 1.6 | 16.1 | 0.00 | 0.00 | 0.00 | 48 | 1016.3 |
| 20260503180109 | 16 | 105 | 1.6 | 9.7 | 0.00 | 0.00 | 0.00 | 46 | 1016.1 |
| 20260503174555 | 16 | 174 | 0.0 | 20.9 | 0.00 | 0.00 | 0.00 | 46 | 1016.0 |
| 20260503173056 | 17 | 21 | 4.8 | 12.9 | 0.00 | 0.00 | 0.00 | 45 | 1015.9 |
| 20260503171549 | 17 | 108 | 3.2 | 11.3 | 0.00 | 0.00 | 0.00 | 45 | 1015.8 |